QPF
0.04 0.03 0.03 0.04 0.05 0.06 0.05 0.04 0.05 0.05 0.04 0.05 0.05 0.05 0.04 0.05 0.05 0.03 0.02 0.02 0.02 0.03 0.02 0.02 0.03 0.03 0.03 0.03 0.03 0.04 0.06 0.07 0.08 0.06 0.04 0.03 0.04 0.03 0.03 0.03 0.03 0.03 0.03
0.04 0.03 0.02 0.04 0.08 0.06 0.05 0.05 0.05 0.05 0.03 0.02 0.02 0.03 0.03 0.03 0.02 0.02 0.02 0.02 0.02 0.02 0.02 0.02 0.03 0.04 0.04 0.03 0.03 0.03 0.05 0.06 0.06 0.06 0.04 0.04 0.04 0.04 0.04 0.04 0.04 0.03 0.03
0.03 0.02 0.02 0.03 0.05 0.05 0.05 0.06 0.05 0.04 0.03 0.02 0.02 0.03 0.03 0.03 0.02 0.02 0.02 0.01 0.01 0.01 0.02 0.02 0.02 0.04 0.04 0.03 0.03 0.03 0.03 0.04 0.04 0.04 0.04 0.04 0.03 0.03 0.03 0.03 0.04 0.04 0.03
0.04 0.04 0.04 0.04 0.04 0.05 0.04 0.05 0.04 0.02 0.02 0.03 0.03 0.02 0.02 0.03 0.03 0.02 0.01 0.01 0.01 0.01 0.01 0.02 0.02 0.03 0.04 0.03 0.03 0.03 0.03 0.04 0.04 0.04 0.03 0.03 0.03 0.02 0.02 0.02 0.02 0.02 0.03
0.05 0.05 0.05 0.04 0.04 0.03 0.03 0.04 0.04 0.02 0.02 0.02 0.02 0.02 0.03 0.02 0.01 0.01 0.02 0.01 0.01 0.01 0.01 0.02 0.02 0.03 0.04 0.03 0.02 0.03 0.03 0.03 0.03 0.03 0.03 0.03 0.04 0.03 0.02 0.02 0.02 0.02 0.01
0.03 0.04 0.04 0.03 0.03 0.04 0.04 0.06 0.05 0.03 0.03 0.02 0.02 0.02 0.02 0.01 0.01 0.01 0.01 0.01 0.01 0.01 0.02 0.03 0.03 0.04 0.04 0.03 0.03 0.02 0.02 0.02 0.02 0.02 0.02 0.03 0.03 0.04 0.03 0.03 0.03 0.03 0.02
0.04 0.03 0.03 0.03 0.04 0.05 0.05 0.05 0.05 0.04 0.03 0.02 0.02 0.02 0.02 0.01 0.01 0.00 0.01 0.01 0.01 0.02 0.04 0.06 0.05 0.04 0.04 0.02 0.02 0.02 0.02 0.02 0.02 0.02 0.02 0.02 0.02 0.02 0.03 0.03 0.03 0.03 0.03
0.02 0.02 0.03 0.04 0.05 0.06 0.05 0.04 0.04 0.03 0.02 0.02 0.02 0.01 0.01 0.01 0.01 0.01 0.01 0.01 0.01 0.02 0.05 0.08 0.07 0.05 0.03 0.02 0.02 0.01 0.01 0.02 0.02 0.02 0.02 0.02 0.02 0.02 0.02 0.02 0.02 0.02 0.02
0.01 0.01 0.02 0.03 0.06 0.07 0.05 0.04 0.03 0.03 0.02 0.01 0.01 0.01 0.01 0.01 0.01 0.01 0.01 0.00 0.01 0.03 0.06 0.08 0.06 0.04 0.03 0.02 0.01 0.01 0.02 0.02 0.02 0.03 0.03 0.03 0.03 0.02 0.02 0.01 0.01 0.01 0.01
0.01 0.02 0.02 0.04 0.07 0.05 0.04 0.04 0.03 0.02 0.02 0.02 0.01 0.01 0.01 0.00 0.00 0.01 0.01 0.01 0.02 0.05 0.06 0.05 0.05 0.03 0.03 0.02 0.01 0.01 0.02 0.03 0.03 0.02 0.02 0.03 0.03 0.02 0.02 0.02 0.02 0.01 0.01
0.02 0.03 0.05 0.08 0.05 0.03 0.03 0.02 0.02 0.02 0.02 0.01 0.01 0.01 0.01 0.00 0.01 0.01 0.02 0.03 0.05 0.05 0.03 0.02 0.03 0.03 0.03 0.03 0.02 0.02 0.02 0.03 0.02 0.02 0.02 0.02 0.03 0.03 0.02 0.02 0.01 0.02 0.01
0.03 0.03 0.03 0.03 0.02 0.01 0.01 0.02 0.02 0.02 0.02 0.02 0.02 0.02 0.01 0.00 0.00 0.01 0.02 0.02 0.02 0.02 0.01 0.01 0.02 0.03 0.03 0.03 0.03 0.04 0.04 0.03 0.03 0.03 0.03 0.02 0.02 0.02 0.02 0.01 0.01 0.01 0.01
0.03 0.02 0.01 0.01 0.01 0.01 0.01 0.01 0.03 0.03 0.02 0.02 0.02 0.01 0.01 0.01 0.01 0.01 0.01 0.02 0.02 0.01 0.01 0.01 0.01 0.02 0.02 0.01 0.01 0.02 0.02 0.02 0.02 0.02 0.03 0.02 0.02 0.02 0.02 0.01 0.01 0.01 0.01
0.01 0.01 0.01 0.00 0.00 0.00 0.01 0.01 0.02 0.03 0.03 0.02 0.01 0.01 0.01 0.01 0.01 0.01 0.01 0.01 0.01 0.01 0.01 0.01 0.01 0.01 0.01 0.00 0.01 0.01 0.01 0.01 0.01 0.01 0.01 0.01 0.01 0.01 0.01 0.01 0.01 0.01 0.01
0.01 0.01 0.00 0.00 0.01 0.00 0.00 0.01 0.01 0.02 0.03 0.04 0.03 0.02 0.02 0.02 0.02 0.02 0.02 0.02 0.02 0.02 0.02 0.02 0.01 0.01 0.01 0.00 0.00 0.00 0.00 0.01 0.01 0.01 0.01 0.01 0.01 0.01 0.01 0.01 0.02 0.02 0.01
0.01 0.01 0.00 0.01 0.00 0.01 0.01 0.01 0.02 0.02 0.02 0.03 0.03 0.03 0.02 0.02 0.01 0.01 0.01 0.02 0.02 0.02 0.02 0.02 0.02 0.02 0.02 0.01 0.01 0.01 0.00 0.00 0.01 0.01 0.01 0.01 0.01 0.00 0.00 0.01 0.01 0.02 0.02
0.00 0.00 0.00 0.01 0.01 0.01 0.01 0.01 0.02 0.02 0.02 0.03 0.04 0.03 0.02 0.01 0.01 0.01 0.01 0.01 0.01 0.01 0.01 0.00 0.01 0.01 0.02 0.03 0.03 0.02 0.01 0.01 0.01 0.01 0.01 0.01 0.02 0.01 0.01 0.01 0.01 0.02 0.03
0.01 0.00 0.00 0.01 0.01 0.01 0.01 0.02 0.02 0.01 0.02 0.03 0.02 0.01 0.02 0.02 0.01 0.00 0.00 0.00 0.00 0.00 0.00 0.01 0.01 0.01 0.01 0.01 0.01 0.02 0.02 0.02 0.02 0.02 0.02 0.02 0.02 0.02 0.02 0.02 0.02 0.02 0.02
0.01 0.00 0.00 0.00 0.01 0.01 0.01 0.02 0.02 0.01 0.01 0.01 0.01 0.01 0.01 0.01 0.00 0.00 0.00 0.00 0.00 0.00 0.00 0.00 0.00 0.00 0.00 0.00 0.01 0.01 0.01 0.02 0.02 0.02 0.02 0.02 0.02 0.02 0.03 0.03 0.02 0.02 0.02
0.01 0.00 0.00 0.00 0.02 0.02 0.02 0.02 0.02 0.02 0.02 0.01 0.01 0.01 0.01 0.01 0.01 0.00 0.00 0.00 0.00 0.00 0.00 0.00 0.00 0.00 0.00 0.00 0.01 0.01 0.01 0.01 0.00 0.00 0.00 0.01 0.01 0.02 0.02 0.02 0.02 0.02 0.02
0.01 0.01 0.00 0.01 0.02 0.03 0.03 0.03 0.02 0.02 0.02 0.02 0.02 0.01 0.02 0.02 0.01 0.01 0.01 0.00 0.00 0.00 0.00 0.00 0.01 0.01 0.01 0.01 0.00 0.00 0.00 0.00 0.00 0.00 0.00 0.00 0.01 0.01 0.01 0.01 0.01 0.01 0.01
0.02 0.01 0.00 0.01 0.02 0.03 0.03 0.03 0.03 0.02 0.03 0.03 0.03 0.01 0.01 0.01 0.01 0.01 0.01 0.01 0.00 0.00 0.01 0.01 0.01 0.01 0.01 0.00 0.00 0.00 0.00 0.00 0.00 0.00 0.00 0.01 0.01 0.01 0.01 0.01 0.01 0.01 0.01
0.01 0.01 0.00 0.01 0.02 0.03 0.03 0.03 0.03 0.03 0.04 0.04 0.03 0.02 0.02 0.02 0.01 0.01 0.00 0.00 0.01 0.01 0.01 0.01 0.01 0.01 0.01 0.01 0.00 0.00 0.00 0.00 0.00 0.01 0.01 0.01 0.01 0.01 0.01 0.01 0.01 0.01 0.02
0.00 0.00 0.00 0.00 0.01 0.03 0.04 0.04 0.04 0.04 0.04 0.03 0.03 0.02 0.02 0.02 0.02 0.01 0.02 0.02 0.02 0.01 0.01 0.01 0.01 0.01 0.01 0.01 0.01 0.01 0.01 0.01 0.01 0.01 0.01 0.01 0.01 0.01 0.01 0.01 0.01 0.02 0.02
0.00 0.00 0.00 0.00 0.01 0.03 0.04 0.03 0.03 0.03 0.03 0.03 0.02 0.02 0.02 0.02 0.02 0.02 0.02 0.02 0.01 0.01 0.01 0.01 0.01 0.01 0.01 0.01 0.01 0.01 0.01 0.01 0.01 0.01 0.01 0.01 0.01 0.01 0.01 0.01 0.01 0.01 0.01
0.00 0.00 0.00 0.00 0.01 0.03 0.04 0.04 0.03 0.03 0.03 0.03 0.02 0.02 0.02 0.02 0.02 0.02 0.01 0.01 0.01 0.01 0.01 0.01 0.00 0.00 0.01 0.01 0.01 0.01 0.01 0.01 0.01 0.01 0.01 0.01 0.01 0.01 0.01 0.00 0.00 0.00 0.00
MSLP
1010.36 1010.16 1009.99 1009.82 1009.63 1009.40 1009.13 1008.81 1008.47 1008.11 1007.76 1007.42 1007.12 1006.86 1006.63 1006.46 1006.33 1006.23 1006.17 1006.13 1006.11 1006.10 1006.10 1006.11 1006.13 1006.16 1006.21 1006.29 1006.40 1006.54 1006.71 1006.89 1007.06 1007.20 1007.28 1007.31 1007.27 1007.17 1007.05 1006.91 1006.80 1006.73 1006.72
1010.38 1010.16 1009.96 1009.76 1009.54 1009.29 1009.01 1008.69 1008.36 1008.01 1007.68 1007.38 1007.11 1006.88 1006.71 1006.58 1006.49 1006.43 1006.41 1006.40 1006.39 1006.38 1006.37 1006.35 1006.33 1006.32 1006.33 1006.39 1006.48 1006.63 1006.81 1007.01 1007.20 1007.36 1007.46 1007.49 1007.44 1007.31 1007.14 1006.95 1006.77 1006.63 1006.55
1010.40 1010.16 1009.92 1009.68 1009.42 1009.15 1008.84 1008.53 1008.20 1007.89 1007.59 1007.33 1007.11 1006.93 1006.80 1006.71 1006.67 1006.65 1006.64 1006.65 1006.65 1006.63 1006.60 1006.55 1006.50 1006.46 1006.45 1006.47 1006.56 1006.69 1006.87 1007.08 1007.28 1007.46 1007.57 1007.61 1007.55 1007.42 1007.22 1007.00 1006.77 1006.58 1006.44
1010.38 1010.12 1009.86 1009.58 1009.29 1008.98 1008.67 1008.35 1008.05 1007.76 1007.50 1007.28 1007.11 1006.97 1006.88 1006.83 1006.81 1006.81 1006.82 1006.82 1006.82 1006.79 1006.74 1006.68 1006.61 1006.54 1006.51 1006.52 1006.58 1006.70 1006.87 1007.07 1007.27 1007.45 1007.57 1007.62 1007.58 1007.46 1007.27 1007.04 1006.80 1006.58 1006.40
1010.32 1010.05 1009.76 1009.46 1009.14 1008.81 1008.49 1008.17 1007.88 1007.63 1007.41 1007.23 1007.09 1006.98 1006.92 1006.87 1006.86 1006.85 1006.85 1006.85 1006.83 1006.80 1006.75 1006.67 1006.60 1006.53 1006.48 1006.47 1006.52 1006.62 1006.76 1006.94 1007.13 1007.30 1007.43 1007.49 1007.47 1007.38 1007.22 1007.02 1006.80 1006.58 1006.38
1010.19 1009.92 1009.62 1009.30 1008.96 1008.62 1008.29 1007.98 1007.71 1007.47 1007.28 1007.12 1007.00 1006.90 1006.83 1006.78 1006.75 1006.72 1006.70 1006.68 1006.65 1006.62 1006.57 1006.50 1006.44 1006.37 1006.33 1006.31 1006.34 1006.42 1006.53 1006.68 1006.84 1006.99 1007.11 1007.18 1007.19 1007.14 1007.03 1006.87 1006.69 1006.49 1006.30
1009.99 1009.73 1009.43 1009.10 1008.75 1008.40 1008.07 1007.76 1007.49 1007.27 1007.08 1006.92 1006.79 1006.69 1006.59 1006.51 1006.44 1006.38 1006.33 1006.29 1006.26 1006.23 1006.19 1006.15 1006.11 1006.07 1006.04 1006.03 1006.04 1006.09 1006.16 1006.26 1006.38 1006.50 1006.60 1006.67 1006.70 1006.69 1006.64 1006.54 1006.41 1006.25 1006.07
1009.72 1009.48 1009.18 1008.85 1008.49 1008.13 1007.79 1007.48 1007.21 1006.97 1006.77 1006.60 1006.45 1006.30 1006.17 1006.04 1005.93 1005.83 1005.75 1005.70 1005.67 1005.65 1005.65 1005.65 1005.65 1005.64 1005.63 1005.63 1005.63 1005.64 1005.67 1005.71 1005.77 1005.84 1005.91 1005.97 1006.01 1006.03 1006.02 1005.97 1005.90 1005.79 1005.65
1009.39 1009.16 1008.87 1008.53 1008.17 1007.80 1007.44 1007.12 1006.83 1006.57 1006.35 1006.14 1005.95 1005.77 1005.58 1005.41 1005.25 1005.12 1005.02 1004.96 1004.94 1004.95 1004.99 1005.04 1005.08 1005.12 1005.14 1005.14 1005.13 1005.11 1005.09 1005.07 1005.06 1005.07 1005.09 1005.12 1005.16 1005.19 1005.20 1005.20 1005.17 1005.11 1005.00
1009.02 1008.79 1008.50 1008.15 1007.78 1007.39 1007.02 1006.68 1006.36 1006.08 1005.82 1005.58 1005.34 1005.11 1004.88 1004.67 1004.48 1004.33 1004.22 1004.16 1004.16 1004.21 1004.29 1004.38 1004.48 1004.55 1004.60 1004.61 1004.58 1004.53 1004.46 1004.38 1004.31 1004.25 1004.22 1004.21 1004.22 1004.24 1004.26 1004.28 1004.28 1004.25 1004.17
1008.61 1008.38 1008.08 1007.73 1007.34 1006.94 1006.55 1006.17 1005.83 1005.51 1005.22 1004.94 1004.66 1004.40 1004.14 1003.90 1003.69 1003.53 1003.42 1003.38 1003.41 1003.49 1003.60 1003.74 1003.87 1003.98 1004.04 1004.05 1004.01 1003.93 1003.82 1003.68 1003.56 1003.44 1003.36 1003.30 1003.28 1003.28 1003.30 1003.32 1003.33 1003.32 1003.26
1008.18 1007.95 1007.65 1007.28 1006.88 1006.46 1006.04 1005.65 1005.27 1004.92 1004.59 1004.28 1003.98 1003.68 1003.40 1003.15 1002.93 1002.78 1002.68 1002.66 1002.71 1002.82 1002.96 1003.12 1003.28 1003.40 1003.47 1003.48 1003.42 1003.32 1003.18 1003.01 1002.84 1002.69 1002.56 1002.47 1002.42 1002.40 1002.40 1002.42 1002.43 1002.42 1002.38
1007.74 1007.51 1007.21 1006.83 1006.42 1005.98 1005.55 1005.13 1004.72 1004.34 1003.98 1003.64 1003.31 1003.00 1002.71 1002.45 1002.24 1002.10 1002.02 1002.01 1002.08 1002.20 1002.36 1002.53 1002.68 1002.80 1002.87 1002.87 1002.81 1002.70 1002.54 1002.36 1002.18 1002.01 1001.87 1001.77 1001.70 1001.67 1001.65 1001.66 1001.66 1001.65 1001.61
1007.31 1007.08 1006.77 1006.40 1005.98 1005.53 1005.08 1004.63 1004.20 1003.79 1003.40 1003.03 1002.68 1002.35 1002.06 1001.80 1001.60 1001.47 1001.40 1001.41 1001.48 1001.60 1001.76 1001.92 1002.06 1002.17 1002.23 1002.22 1002.16 1002.05 1001.90 1001.74 1001.57 1001.42 1001.29 1001.20 1001.13 1001.10 1001.08 1001.07 1001.07 1001.04 1001.01
1006.87 1006.65 1006.36 1005.99 1005.57 1005.12 1004.65 1004.18 1003.72 1003.28 1002.85 1002.45 1002.07 1001.72 1001.42 1001.16 1000.97 1000.84 1000.78 1000.79 1000.86 1000.98 1001.12 1001.26 1001.39 1001.48 1001.52 1001.52 1001.46 1001.37 1001.25 1001.12 1000.99 1000.88 1000.80 1000.74 1000.71 1000.69 1000.68 1000.67 1000.65 1000.62 1000.57
1006.42 1006.22 1005.95 1005.59 1005.18 1004.72 1004.24 1003.75 1003.25 1002.77 1002.30 1001.85 1001.44 1001.07 1000.75 1000.49 1000.29 1000.16 1000.11 1000.12 1000.19 1000.30 1000.43 1000.55 1000.66 1000.73 1000.77 1000.76 1000.73 1000.66 1000.59 1000.51 1000.45 1000.40 1000.38 1000.37 1000.37 1000.38 1000.39 1000.38 1000.35 1000.31 1000.25
1005.95 1005.79 1005.53 1005.20 1004.79 1004.33 1003.83 1003.30 1002.77 1002.23 1001.71 1001.22 1000.76 1000.35 1000.01 999.73 999.53 999.41 999.36 999.38 999.45 999.56 999.68 999.79 999.89 999.96 1000.00 1000.01 1000.00 999.98 999.96 999.94 999.94 999.96 1000.00 1000.05 1000.09 1000.13 1000.15 1000.14 1000.11 1000.05 999.96
1005.47 1005.33 1005.10 1004.78 1004.38 1003.91 1003.38 1002.82 1002.24 1001.64 1001.06 1000.51 1000.00 999.56 999.19 998.90 998.70 998.58 998.55 998.58 998.67 998.79 998.92 999.05 999.16 999.24 999.30 999.33 999.35 999.37 999.40 999.44 999.50 999.58 999.66 999.75 999.83 999.88 999.90 999.89 999.83 999.75 999.64
1004.99 1004.86 1004.64 1004.32 1003.92 1003.43 1002.88 1002.27 1001.64 1000.99 1000.35 999.74 999.19 998.71 998.31 998.02 997.83 997.73 997.73 997.80 997.92 998.07 998.23 998.39 998.52 998.63 998.72 998.78 998.84 998.90 998.97 999.05 999.15 999.26 999.37 999.48 999.56 999.61 999.62 999.58 999.50 999.38 999.23
1004.50 1004.37 1004.14 1003.82 1003.39 1002.88 1002.30 1001.65 1000.97 1000.27 999.59 998.94 998.35 997.86 997.46 997.17 997.01 996.95 996.98 997.10 997.27 997.47 997.68 997.88 998.06 998.21 998.33 998.43 998.52 998.60 998.70 998.80 998.91 999.03 999.14 999.23 999.29 999.31 999.29 999.21 999.09 998.93 998.75
1004.01 1003.86 1003.61 1003.26 1002.81 1002.27 1001.66 1000.98 1000.27 999.54 998.83 998.17 997.58 997.08 996.71 996.45 996.33 996.32 996.41 996.59 996.82 997.08 997.34 997.59 997.81 998.00 998.16 998.29 998.39 998.50 998.59 998.69 998.79 998.89 998.97 999.02 999.03 999.00 998.92 998.79 998.62 998.42 998.19
1003.54 1003.34 1003.04 1002.66 1002.18 1001.61 1000.98 1000.29 999.56 998.84 998.14 997.49 996.93 996.48 996.15 995.95 995.88 995.93 996.09 996.32 996.61 996.92 997.23 997.52 997.78 998.00 998.18 998.33 998.44 998.54 998.63 998.70 998.77 998.82 998.84 998.84 998.79 998.69 998.54 998.35 998.12 997.87 997.61
1003.07 1002.80 1002.45 1002.02 1001.52 1000.93 1000.29 999.61 998.92 998.23 997.58 996.99 996.49 996.11 995.86 995.73 995.73 995.85 996.06 996.34 996.67 997.01 997.35 997.66 997.94 998.16 998.34 998.49 998.59 998.67 998.73 998.77 998.78 998.78 998.74 998.66 998.53 998.36 998.14 997.89 997.61 997.32 997.03
1002.60 1002.26 1001.85 1001.39 1000.86 1000.27 999.65 999.01 998.37 997.76 997.20 996.70 996.31 996.03 995.87 995.82 995.90 996.07 996.32 996.63 996.97 997.31 997.64 997.94 998.19 998.40 998.56 998.67 998.75 998.80 998.81 998.80 998.77 998.70 998.59 998.43 998.24 997.99 997.71 997.40 997.07 996.74 996.42
1002.12 1001.71 1001.26 1000.76 1000.23 999.67 999.09 998.52 997.98 997.47 997.03 996.66 996.39 996.23 996.17 996.21 996.34 996.55 996.82 997.12 997.44 997.75 998.03 998.28 998.48 998.63 998.74 998.81 998.84 998.84 998.81 998.74 998.65 998.52 998.34 998.12 997.85 997.54 997.20 996.83 996.46 996.10 995.76
1001.63 1001.18 1000.70 1000.19 999.68 999.16 998.66 998.18 997.75 997.38 997.08 996.85 996.72 996.68 996.72 996.83 997.01 997.24 997.49 997.75 998.01 998.24 998.44 998.60 998.72 998.80 998.84 998.84 998.81 998.75 998.66 998.54 998.39 998.19 997.95 997.67 997.34 996.96 996.57 996.15 995.74 995.35 994.99
Thickness
5665 5663 5660 5657 5655 5652 5649 5647 5644 5641 5638 5635 5632 5629 5626 5624 5622 5620 5618 5617 5616 5614 5613 5612 5611 5611 5611 5611 5611 5611 5610 5608 5605 5606 5608 5610 5610 5610 5611 5612 5613 5612 5612
5661 5659 5656 5653 5651 5648 5647 5645 5642 5639 5636 5633 5630 5626 5623 5621 5619 5617 5615 5614 5612 5610 5609 5608 5607 5607 5606 5606 5605 5605 5604 5603 5600 5599 5600 5601 5603 5603 5603 5603 5604 5605 5604
5658 5655 5651 5649 5647 5645 5644 5643 5640 5637 5634 5631 5628 5624 5620 5618 5616 5614 5613 5611 5610 5608 5607 5605 5603 5602 5601 5601 5600 5599 5598 5598 5595 5593 5593 5594 5595 5597 5596 5596 5596 5596 5597
5655 5652 5649 5646 5645 5643 5642 5640 5637 5634 5631 5628 5625 5621 5618 5616 5614 5612 5611 5610 5608 5606 5604 5602 5601 5600 5598 5598 5597 5595 5594 5591 5590 5588 5587 5587 5588 5589 5588 5586 5586 5587 5588
5652 5650 5647 5645 5644 5642 5640 5638 5635 5632 5629 5626 5622 5619 5617 5615 5613 5611 5609 5608 5606 5604 5603 5601 5600 5599 5598 5596 5594 5591 5589 5586 5584 5582 5581 5580 5580 5580 5580 5579 5578 5578 5579
5651 5648 5646 5644 5642 5639 5638 5636 5633 5630 5627 5624 5620 5617 5616 5614 5612 5610 5608 5606 5604 5602 5600 5599 5598 5597 5596 5594 5593 5590 5587 5584 5581 5578 5576 5575 5574 5575 5574 5574 5571 5570 5570
5649 5647 5645 5642 5640 5637 5636 5633 5630 5627 5624 5621 5618 5616 5614 5612 5611 5609 5608 5605 5603 5600 5599 5597 5596 5595 5593 5591 5589 5587 5585 5583 5581 5577 5574 5572 5571 5571 5570 5568 5566 5564 5564
5648 5646 5644 5641 5639 5636 5633 5630 5627 5625 5622 5619 5617 5616 5613 5612 5610 5608 5607 5604 5602 5599 5597 5595 5593 5592 5591 5588 5586 5583 5581 5580 5579 5576 5573 5571 5570 5569 5566 5564 5562 5560 5560
5648 5645 5643 5641 5637 5634 5631 5627 5624 5622 5620 5618 5617 5615 5612 5611 5609 5607 5605 5602 5599 5598 5597 5595 5593 5590 5589 5587 5584 5580 5578 5577 5576 5574 5572 5570 5569 5567 5564 5560 5557 5553 5551
5647 5646 5644 5641 5637 5633 5630 5627 5624 5621 5619 5618 5616 5614 5612 5610 5609 5606 5603 5600 5598 5596 5595 5594 5593 5590 5588 5586 5582 5578 5575 5574 5573 5571 5569 5567 5565 5564 5561 5557 5553 5549 5545
5648 5646 5643 5640 5636 5633 5630 5627 5624 5621 5618 5617 5615 5613 5611 5610 5608 5605 5602 5599 5597 5595 5594 5592 5591 5590 5587 5585 5581 5578 5575 5573 5570 5566 5564 5562 5560 5558 5556 5553 5550 5546 5542
5646 5643 5640 5637 5635 5633 5629 5626 5623 5620 5618 5615 5613 5612 5610 5609 5607 5604 5602 5599 5597 5594 5592 5591 5589 5588 5586 5584 5581 5578 5575 5572 5567 5562 5559 5557 5555 5554 5552 5550 5547 5544 5541
5643 5640 5637 5635 5632 5630 5627 5624 5621 5619 5616 5614 5611 5610 5609 5608 5606 5604 5602 5599 5597 5594 5592 5591 5589 5587 5585 5582 5579 5576 5572 5568 5563 5558 5555 5553 5552 5550 5548 5545 5543 5540 5538
5640 5637 5634 5632 5630 5628 5626 5623 5620 5618 5616 5614 5612 5609 5608 5606 5605 5603 5600 5598 5596 5594 5591 5590 5588 5585 5582 5579 5576 5573 5569 5565 5561 5557 5553 5551 5549 5546 5543 5541 5537 5535 5532
5638 5635 5633 5630 5628 5625 5623 5621 5620 5618 5617 5614 5612 5610 5607 5605 5605 5603 5599 5597 5594 5592 5589 5586 5584 5581 5578 5575 5572 5569 5566 5562 5558 5554 5551 5547 5545 5542 5539 5536 5533 5530 5526
5635 5633 5630 5628 5625 5624 5622 5621 5621 5619 5619 5617 5615 5612 5610 5608 5606 5603 5599 5597 5594 5591 5587 5584 5581 5578 5575 5572 5569 5566 5563 5559 5555 5552 5548 5544 5541 5538 5534 5532 5529 5526 5523
5634 5632 5629 5627 5625 5623 5621 5620 5618 5619 5619 5617 5615 5613 5611 5609 5606 5603 5600 5597 5594 5590 5585 5582 5579 5576 5574 5571 5567 5563 5560 5556 5553 5549 5545 5542 5539 5535 5532 5529 5526 5523 5520
5634 5632 5629 5626 5624 5623 5622 5621 5619 5617 5616 5616 5616 5614 5612 5609 5606 5603 5599 5595 5591 5587 5584 5581 5578 5575 5572 5569 5565 5561 5558 5554 5550 5546 5542 5539 5536 5532 5529 5526 5522 5519 5516
5632 5630 5628 5626 5625 5623 5622 5621 5619 5618 5616 5615 5614 5613 5612 5609 5606 5602 5598 5593 5590 5586 5583 5580 5577 5574 5571 5567 5564 5560 5556 5552 5548 5544 5540 5537 5533 5529 5526 5522 5519 5516 5512
5630 5630 5628 5626 5624 5623 5622 5620 5618 5617 5615 5614 5613 5612 5610 5607 5603 5600 5597 5593 5590 5587 5584 5581 5578 5574 5571 5567 5562 5558 5554 5550 5545 5541 5538 5534 5531 5527 5523 5520 5516 5512 5508
5628 5627 5627 5625 5623 5622 5621 5619 5618 5617 5616 5614 5614 5613 5611 5607 5603 5600 5597 5594 5591 5588 5584 5581 5578 5574 5570 5566 5561 5557 5552 5548 5543 5539 5535 5531 5528 5525 5521 5518 5514 5510 5505
5625 5624 5624 5623 5622 5621 5620 5619 5618 5617 5616 5615 5614 5613 5612 5608 5604 5601 5598 5595 5592 5589 5586 5582 5577 5573 5569 5565 5560 5556 5551 5546 5542 5537 5533 5529 5526 5523 5519 5515 5511 5507 5503
5623 5622 5622 5621 5620 5620 5619 5618 5617 5616 5615 5614 5614 5612 5611 5607 5605 5602 5598 5595 5592 5588 5585 5581 5577 5573 5569 5565 5561 5556 5551 5546 5541 5537 5532 5528 5524 5521 5516 5512 5508 5504 5500
5621 5620 5619 5619 5618 5617 5616 5616 5616 5616 5616 5614 5613 5611 5610 5608 5605 5602 5599 5595 5591 5588 5584 5581 5577 5573 5569 5564 5560 5556 5551 5547 5543 5538 5534 5528 5524 5519 5515 5510 5506 5503 5498
5618 5618 5617 5616 5615 5615 5614 5614 5615 5615 5614 5613 5612 5611 5609 5607 5604 5601 5597 5594 5590 5586 5582 5578 5575 5570 5566 5562 5558 5554 5550 5547 5542 5538 5533 5528 5523 5518 5513 5509 5504 5500 5495
5616 5616 5615 5614 5613 5613 5612 5611 5612 5612 5612 5612 5611 5609 5607 5605 5602 5599 5595 5592 5587 5583 5579 5575 5572 5568 5564 5560 5556 5552 5548 5545 5540 5536 5532 5526 5521 5517 5512 5507 5503 5498 5493